CT1AKV-10 Weather Reports


time (UTC)temp
C
wind
direction
speed
KPH
gust
KPH
rain 1hr
cm
rain 24hr
cm
rain mn
cm
humidity
%
barometer
mb
20200930174508 19 0 0.0 0.0 0.00 0.00 0.00 10 1016.7
20200930173009 19 0 0.0 0.0 0.00 0.00 0.00 10 1016.7
20200930170005 20 0 0.0 0.0 0.00 0.00 0.00 10 1016.8
20200930164520 20 0 0.0 0.0 0.00 0.00 0.00 10 1016.6
20200930163007 20 0 0.0 0.0 0.00 0.00 0.00 10 1016.5
20200930161504 21 0 0.0 0.0 0.00 0.00 0.00 10 1016.5
20200930160018 21 0 0.0 0.0 0.00 0.00 0.00 10 1016.4
20200930154513 21 0 0.0 0.0 0.00 0.00 0.00 10 1016.4
20200930153004 22 0 0.0 0.0 0.00 0.00 0.00 10 1016.3
20200930151507 22 0 0.0 0.0 0.00 0.00 0.00 10 1016.3
20200930150009 23 0 0.0 0.0 0.00 0.00 0.00 10 1016.3
20200930144522 23 0 0.0 0.0 0.00 0.00 0.00 10 1016.4
20200930141517 24 0 0.0 0.0 0.00 0.00 0.00 10 1016.3
20200930134517 25 0 0.0 0.0 0.00 0.00 0.00 10 1016.2
20200930130021 24 0 0.0 0.0 0.00 0.00 0.00 10 1016.6
20200930124511 23 0 0.0 0.0 0.00 0.00 0.00 10 1016.7
20200930113007 22 0 0.0 0.0 0.00 0.00 0.00 10 1017.3
20200930101507 22 0 0.0 0.0 0.00 0.00 0.00 10 1017.6
20200930100017 22 0 0.0 0.0 0.00 0.00 0.00 10 1017.6
20200930084510 18 0 0.0 0.0 0.00 0.00 0.00 46 1017.5
20200930080009 17 0 0.0 0.0 0.00 0.00 0.00 99 1017.3
20200930074513 16 0 0.0 0.0 0.00 0.00 0.00 99 1017.1
20200930073010 15 0 0.0 0.0 0.00 0.00 0.00 99 1017.0
20200930064513 15 0 0.0 0.0 0.00 0.00 0.00 99 1016.5
20200930061506 15 0 0.0 0.0 0.00 0.00 0.00 99 1016.3
20200930053010 15 0 0.0 0.0 0.00 0.00 0.00 99 1016.2
20200930041508 0 0 0.0 0.0 0.00 0.00 0.00 99 1016.2
20200930040008 0 0 0.0 0.0 0.00 0.00 0.00 99 1016.2
20200930034517 0 0 0.0 0.0 0.00 0.00 0.00 99 1016.1
20200930031521 25 0 0.0 0.0 0.00 0.00 0.00 99 1016.3
20200930023008 51 0 0.0 0.0 0.00 0.00 0.00 64 1016.3
20200930021518 51 0 0.0 0.0 0.00 0.00 0.00 40 1016.4
20200930020025 15 0 0.0 0.0 0.00 0.00 0.00 28 1016.4
20200930010011 15 0 0.0 0.0 0.00 0.00 0.00 10 1016.7
20200930004504 15 0 0.0 0.0 0.00 0.00 0.00 10 1016.6
20200930000009 15 0 0.0 0.0 0.00 0.00 0.00 10 1016.8
20200929234509 16 0 0.0 0.0 0.00 0.00 0.00 10 1016.6
20200929224506 16 0 0.0 0.0 0.00 0.00 0.00 10 1016.8
20200929213014 17 0 0.0 0.0 0.00 0.00 0.00 10 1016.6
20200929210007 17 0 0.0 0.0 0.00 0.00 0.00 10 1016.4
20200929204512 17 0 0.0 0.0 0.00 0.00 0.00 10 1016.4
20200929203016 51 0 0.0 0.0 0.00 0.00 0.00 10 1016.3
20200929194517 18 0 0.0 0.0 0.00 0.00 0.00 10 1015.8
20200929180009 23 0 0.0 0.0 0.00 0.00 0.00 10 1015.2